Find GPS IIA-17

NORAD ID: 23953 Int'l Des: 1996-041 Owner: AFSMC Country: US Constellation: GPS operational
MEOCIRCULAR

リアルタイム位置

3D地球を読み込み中...

GPS IIA-17について

説明を読み込み中...

次回通過

Passes for default location (London). Set your location on the main map for personalized predictions.

高度履歴

Loading altitude history...

軌道要素

1 23953U 96041A 26105.50501527 -.00000043 00000-0 00000+0 0 9998
2 23953 55.9689 48.7426 0061586 107.3131 70.7356 1.88695482213600
Epoch: Apr 15, 2026 • Age: 45 hours

現在のステータス

高度 21306.5 km
速度 3.79 km/s
衛星直下点 7.91°N, 72.54°E
打ち上げ日 Jul 16, 1996
運用期間 29.7 years
タイプ navigation

技術仕様

分類 Payload
質量 860.00 kg
乾燥質量 860.00 kg
総質量 1881.00 kg
長さ 2.40 m
直径 1.80 m
スパン 5.30 m
形状 Box + 2 Pan
製造者 RWISB
バスタイプ GPS IIA
フェーズステータス In Orbit
所有者/国 AFSMC/US

Most Searched